This is the latest recevied weather packets stored in our database for station/object WD4ITN. If no packets are shown the sender has not sent any weather packets the latest 10 day(s).
| Time | Temp. | Humidity | Pressure | Rain* | Wind** | Luminosity | Snow |
|---|---|---|---|---|---|---|---|
| 1777863211 | 8.33° C | 58% | 1013.4 hPa | 0 mm | - | - | - |
| 1777862906 | 8.33° C | 56% | 1013.4 hPa | 0 mm | - | - | - |
| 1777862604 | 8.33° C | 53% | 1013.6 hPa | 0 mm | - | - | - |
| 1777862305 | 8.33° C | 53% | 1013.6 hPa | 0 mm | - | - | - |
| 1777861995 | 8.33° C | 54% | 1013.6 hPa | 0 mm | - | - | - |
| 1777861708 | 8.33° C | 53% | 1013.5 hPa | 0 mm | - | - | - |
| 1777861406 | 8.33° C | 56% | 1013.7 hPa | 0 mm | - | - | - |
| 1777861122 | 8.33° C | 52% | 1013.7 hPa | 0 mm | - | - | - |
| 1777860812 | 8.33° C | 54% | 1013.5 hPa | 0 mm | - | - | - |
| 1777860493 | 7.78° C | 55% | 1013.5 hPa | 0 mm | - | - | - |
| 1777860207 | 8.33° C | 53% | 1013.4 hPa | 0 mm | - | - | - |
| 1777859904 | 7.78° C | 52% | 1013.5 hPa | 0 mm | - | - | - |
| 1777859602 | 7.78° C | 52% | 1013.5 hPa | 0 mm | - | - | - |
| 1777859323 | 7.78° C | 52% | 1013.4 hPa | 0 mm | - | - | - |
| 1777858993 | 7.78° C | 52% | 1013.5 hPa | 0 mm | - | - | - |
| 1777858696 | 7.78° C | 51% | 1013.4 hPa | 0 mm | - | - | - |
| 1777858417 | 7.78° C | 52% | 1013.3 hPa | 0 mm | - | - | - |
| 1777858106 | 7.78° C | 51% | 1013.2 hPa | 0 mm | - | - | - |
| 1777857807 | 8.33° C | 51% | 1013.1 hPa | 0 mm | - | - | - |
| 1777857495 | 7.78° C | 52% | 1013.1 hPa | 0 mm | - | - | - |
| 1777857195 | 7.78° C | 51% | 1013.1 hPa | 0 mm | - | - | - |
| 1777856896 | 7.78° C | 51% | 1013.1 hPa | 0 mm | - | - | - |
| 1777856609 | 7.78° C | 50% | 1013.1 hPa | 0 mm | - | - | - |
| 1777856307 | 7.78° C | 48% | 1013 hPa | 0 mm | - | - | - |
| 1777856005 | 8.33° C | 49% | 1012.9 hPa | 0 mm | - | - | - |
* Rain since midnight (hover to see other rain measurements)
** Current wind speed in m/s (hover to see current wind gust speed)